QPF
0.00 0.00 0.00 0.00 0.00 0.00 0.00 0.00 0.00 0.00 0.00 0.00 0.00 0.00 0.00 0.00 0.00 0.00 0.00 0.00 0.00 0.00 0.01 0.02 0.03 0.02 0.02 0.02 0.02 0.01 0.01 0.01 0.01 0.02 0.02 0.03 0.04 0.04 0.04 0.04 0.04 0.03 0.02 0.02 0.02 0.02 0.02 0.02 0.01
0.00 0.00 0.00 0.00 0.00 0.00 0.00 0.00 0.00 0.00 0.00 0.00 0.00 0.00 0.00 0.00 0.00 0.00 0.01 0.01 0.00 0.01 0.01 0.01 0.03 0.03 0.03 0.03 0.02 0.01 0.01 0.01 0.01 0.02 0.04 0.04 0.05 0.07 0.07 0.05 0.03 0.03 0.02 0.01 0.01 0.01 0.01 0.01 0.01
0.00 0.00 0.00 0.00 0.00 0.00 0.00 0.00 0.00 0.00 0.00 0.00 0.00 0.00 0.00 0.00 0.00 0.01 0.01 0.01 0.01 0.01 0.01 0.01 0.03 0.03 0.03 0.03 0.02 0.01 0.01 0.01 0.01 0.02 0.04 0.04 0.04 0.06 0.06 0.06 0.03 0.02 0.03 0.01 0.01 0.02 0.02 0.01 0.01
0.00 0.00 0.00 0.00 0.00 0.00 0.00 0.00 0.00 0.00 0.00 0.00 0.00 0.00 0.00 0.00 0.00 0.01 0.01 0.01 0.01 0.01 0.00 0.01 0.03 0.03 0.03 0.02 0.02 0.02 0.01 0.01 0.01 0.01 0.03 0.03 0.03 0.03 0.04 0.04 0.03 0.02 0.01 0.01 0.01 0.01 0.01 0.01 0.00
0.00 0.00 0.00 0.00 0.00 0.00 0.00 0.00 0.00 0.00 0.00 0.00 0.00 0.00 0.00 0.00 0.00 0.01 0.01 0.01 0.01 0.01 0.00 0.01 0.02 0.04 0.04 0.02 0.02 0.02 0.02 0.01 0.01 0.02 0.03 0.03 0.02 0.02 0.02 0.02 0.03 0.03 0.02 0.01 0.01 0.01 0.00 0.00 0.00
0.00 0.00 0.00 0.00 0.00 0.00 0.00 0.00 0.00 0.00 0.00 0.00 0.00 0.00 0.00 0.00 0.00 0.00 0.01 0.01 0.01 0.00 0.00 0.01 0.02 0.03 0.04 0.04 0.03 0.03 0.03 0.02 0.02 0.02 0.03 0.03 0.02 0.02 0.01 0.01 0.02 0.03 0.02 0.01 0.00 0.00 0.00 0.00 0.00
0.00 0.00 0.00 0.00 0.00 0.00 0.00 0.00 0.00 0.00 0.00 0.00 0.00 0.00 0.00 0.00 0.00 0.00 0.01 0.01 0.01 0.01 0.01 0.01 0.02 0.03 0.04 0.03 0.03 0.04 0.04 0.03 0.02 0.02 0.03 0.04 0.03 0.02 0.01 0.01 0.01 0.02 0.02 0.02 0.01 0.00 0.00 0.00 0.00
0.00 0.00 0.00 0.00 0.00 0.00 0.00 0.00 0.00 0.00 0.00 0.00 0.00 0.00 0.00 0.00 0.00 0.00 0.01 0.01 0.02 0.02 0.02 0.02 0.03 0.04 0.04 0.03 0.03 0.03 0.03 0.04 0.03 0.02 0.03 0.04 0.04 0.03 0.02 0.01 0.01 0.01 0.01 0.02 0.01 0.00 0.00 0.00 0.00
0.01 0.01 0.00 0.00 0.00 0.00 0.00 0.00 0.00 0.00 0.00 0.00 0.00 0.00 0.00 0.00 0.00 0.01 0.01 0.02 0.03 0.03 0.04 0.04 0.04 0.05 0.05 0.04 0.03 0.03 0.02 0.03 0.03 0.03 0.04 0.04 0.04 0.03 0.03 0.01 0.01 0.01 0.01 0.01 0.01 0.01 0.00 0.00 0.00
0.01 0.01 0.00 0.00 0.00 0.00 0.00 0.00 0.00 0.00 0.00 0.00 0.00 0.00 0.00 0.00 0.00 0.00 0.01 0.01 0.02 0.03 0.04 0.05 0.06 0.06 0.05 0.05 0.04 0.03 0.02 0.02 0.02 0.02 0.03 0.03 0.04 0.04 0.03 0.02 0.01 0.01 0.01 0.01 0.01 0.01 0.01 0.00 0.00
0.01 0.00 0.00 0.00 0.00 0.00 0.01 0.01 0.00 0.00 0.00 0.00 0.00 0.00 0.00 0.00 0.00 0.00 0.01 0.01 0.02 0.03 0.04 0.05 0.06 0.06 0.05 0.05 0.03 0.03 0.02 0.02 0.02 0.01 0.02 0.03 0.04 0.04 0.03 0.02 0.01 0.00 0.00 0.00 0.00 0.00 0.00 0.00 0.00
0.00 0.00 0.00 0.00 0.01 0.01 0.01 0.01 0.01 0.00 0.00 0.00 0.00 0.00 0.00 0.00 0.01 0.01 0.01 0.01 0.01 0.02 0.04 0.05 0.06 0.06 0.05 0.05 0.05 0.04 0.02 0.03 0.03 0.02 0.02 0.02 0.03 0.03 0.03 0.02 0.01 0.00 0.00 0.00 0.00 0.00 0.00 0.00 0.00
0.00 0.00 0.00 0.00 0.01 0.01 0.01 0.01 0.01 0.00 0.00 0.00 0.00 0.00 0.00 0.01 0.01 0.01 0.01 0.01 0.01 0.01 0.03 0.05 0.05 0.06 0.07 0.06 0.07 0.06 0.04 0.03 0.03 0.02 0.02 0.03 0.03 0.03 0.02 0.02 0.01 0.00 0.00 0.00 0.00 0.00 0.00 0.00 0.00
0.00 0.00 0.00 0.00 0.00 0.01 0.01 0.02 0.01 0.00 0.00 0.00 0.00 0.00 0.01 0.01 0.02 0.02 0.02 0.01 0.01 0.01 0.03 0.06 0.06 0.06 0.09 0.08 0.07 0.07 0.07 0.05 0.05 0.04 0.03 0.03 0.03 0.03 0.02 0.02 0.01 0.01 0.01 0.00 0.01 0.00 0.00 0.00 0.01
0.00 0.00 0.00 0.00 0.00 0.01 0.01 0.03 0.02 0.01 0.01 0.01 0.01 0.01 0.01 0.01 0.02 0.02 0.02 0.01 0.01 0.02 0.02 0.05 0.08 0.07 0.08 0.10 0.08 0.06 0.07 0.06 0.06 0.05 0.05 0.04 0.05 0.05 0.03 0.02 0.02 0.03 0.03 0.02 0.02 0.02 0.01 0.01 0.01
0.00 0.00 0.00 0.00 0.00 0.01 0.01 0.02 0.02 0.02 0.02 0.02 0.02 0.01 0.01 0.01 0.02 0.02 0.02 0.01 0.02 0.02 0.02 0.04 0.07 0.10 0.10 0.10 0.09 0.07 0.06 0.05 0.06 0.06 0.05 0.04 0.04 0.05 0.06 0.05 0.04 0.02 0.02 0.02 0.02 0.02 0.02 0.02 0.02
0.00 0.00 0.00 0.00 0.00 0.01 0.01 0.01 0.02 0.02 0.02 0.02 0.02 0.01 0.01 0.01 0.02 0.02 0.02 0.02 0.02 0.03 0.02 0.03 0.06 0.09 0.10 0.08 0.08 0.07 0.06 0.05 0.04 0.05 0.06 0.05 0.04 0.04 0.05 0.06 0.07 0.05 0.03 0.02 0.02 0.02 0.02 0.02 0.02
0.01 0.01 0.00 0.00 0.00 0.00 0.01 0.01 0.02 0.02 0.02 0.02 0.01 0.01 0.01 0.01 0.01 0.02 0.02 0.04 0.04 0.04 0.04 0.03 0.04 0.08 0.11 0.10 0.09 0.08 0.07 0.06 0.04 0.04 0.05 0.04 0.04 0.04 0.04 0.05 0.05 0.06 0.05 0.03 0.02 0.02 0.02 0.02 0.02
0.00 0.00 0.00 0.00 0.00 0.00 0.01 0.01 0.01 0.01 0.01 0.01 0.01 0.01 0.01 0.01 0.01 0.01 0.01 0.04 0.05 0.05 0.05 0.04 0.03 0.05 0.09 0.11 0.10 0.09 0.07 0.06 0.05 0.04 0.06 0.06 0.04 0.04 0.04 0.05 0.05 0.05 0.05 0.04 0.03 0.02 0.02 0.02 0.02
0.01 0.01 0.00 0.00 0.00 0.00 0.01 0.01 0.01 0.01 0.01 0.01 0.02 0.01 0.01 0.01 0.01 0.01 0.01 0.02 0.04 0.05 0.07 0.06 0.04 0.04 0.06 0.09 0.08 0.09 0.08 0.06 0.04 0.04 0.05 0.08 0.07 0.05 0.05 0.05 0.05 0.05 0.05 0.05 0.04 0.03 0.02 0.02 0.02
0.01 0.01 0.01 0.01 0.01 0.01 0.01 0.01 0.01 0.01 0.01 0.01 0.01 0.01 0.01 0.01 0.01 0.01 0.01 0.02 0.03 0.03 0.06 0.07 0.05 0.04 0.05 0.07 0.08 0.08 0.09 0.08 0.06 0.04 0.04 0.06 0.09 0.08 0.05 0.05 0.05 0.05 0.06 0.06 0.05 0.04 0.03 0.03 0.02
0.01 0.00 0.01 0.01 0.01 0.01 0.00 0.01 0.00 0.00 0.00 0.01 0.01 0.01 0.01 0.01 0.01 0.01 0.01 0.02 0.02 0.02 0.04 0.06 0.04 0.05 0.05 0.05 0.08 0.09 0.07 0.07 0.07 0.06 0.04 0.04 0.06 0.09 0.07 0.05 0.05 0.04 0.04 0.05 0.06 0.05 0.04 0.03 0.03
0.01 0.00 0.01 0.01 0.01 0.01 0.00 0.01 0.00 0.00 0.00 0.00 0.01 0.01 0.01 0.01 0.01 0.01 0.01 0.02 0.02 0.03 0.03 0.06 0.04 0.04 0.05 0.05 0.07 0.09 0.09 0.07 0.07 0.06 0.06 0.04 0.04 0.06 0.09 0.06 0.05 0.04 0.04 0.03 0.04 0.05 0.05 0.04 0.04
0.01 0.01 0.02 0.02 0.03 0.03 0.01 0.01 0.00 0.00 0.00 0.00 0.00 0.01 0.01 0.01 0.01 0.01 0.01 0.01 0.02 0.02 0.03 0.04 0.04 0.04 0.05 0.06 0.07 0.09 0.09 0.08 0.07 0.07 0.06 0.06 0.04 0.04 0.07 0.09 0.06 0.05 0.04 0.04 0.03 0.03 0.04 0.04 0.04
0.04 0.05 0.07 0.07 0.05 0.02 0.00 0.00 0.00 0.00 0.00 0.00 0.01 0.01 0.01 0.01 0.01 0.01 0.01 0.01 0.01 0.02 0.02 0.03 0.04 0.04 0.05 0.06 0.07 0.08 0.08 0.08 0.08 0.06 0.06 0.07 0.07 0.05 0.04 0.07 0.07 0.05 0.05 0.04 0.04 0.03 0.03 0.03 0.03
0.04 0.04 0.04 0.03 0.02 0.01 0.00 0.00 0.00 0.00 0.00 0.00 0.00 0.01 0.01 0.01 0.01 0.01 0.01 0.02 0.02 0.02 0.02 0.03 0.03 0.04 0.05 0.07 0.08 0.07 0.07 0.07 0.07 0.06 0.05 0.06 0.06 0.05 0.03 0.03 0.05 0.06 0.05 0.04 0.04 0.03 0.03 0.03 0.03
0.04 0.03 0.02 0.02 0.01 0.01 0.00 0.00 0.00 0.00 0.00 0.00 0.00 0.00 0.01 0.01 0.01 0.01 0.01 0.01 0.02 0.02 0.02 0.02 0.03 0.03 0.03 0.04 0.08 0.09 0.08 0.06 0.05 0.05 0.05 0.04 0.05 0.06 0.05 0.03 0.03 0.04 0.05 0.05 0.05 0.04 0.03 0.03 0.02
0.03 0.03 0.03 0.04 0.03 0.01 0.00 0.00 0.01 0.01 0.00 0.00 0.00 0.00 0.01 0.01 0.01 0.01 0.01 0.01 0.01 0.02 0.02 0.02 0.02 0.02 0.02 0.02 0.03 0.05 0.07 0.08 0.07 0.06 0.05 0.05 0.05 0.05 0.06 0.05 0.04 0.04 0.04 0.05 0.06 0.06 0.04 0.03 0.03
0.03 0.05 0.05 0.04 0.03 0.02 0.01 0.02 0.02 0.01 0.01 0.01 0.01 0.01 0.01 0.01 0.01 0.01 0.01 0.01 0.01 0.01 0.01 0.01 0.01 0.01 0.01 0.01 0.02 0.02 0.03 0.05 0.06 0.07 0.07 0.07 0.06 0.06 0.05 0.05 0.04 0.04 0.03 0.04 0.04 0.06 0.05 0.04 0.04
0.02 0.02 0.03 0.04 0.03 0.02 0.02 0.03 0.03 0.02 0.02 0.01 0.01 0.01 0.01 0.01 0.01 0.01 0.01 0.01 0.01 0.01 0.01 0.01 0.01 0.01 0.01 0.01 0.01 0.01 0.02 0.02 0.04 0.05 0.05 0.06 0.07 0.07 0.07 0.06 0.05 0.04 0.03 0.03 0.03 0.03 0.04 0.04 0.03
MSLP
1013.41 1014.11 1014.89 1015.65 1016.29 1016.72 1016.89 1016.80 1016.48 1015.99 1015.40 1014.79 1014.21 1013.68 1013.20 1012.76 1012.32 1011.88 1011.44 1011.02 1010.68 1010.45 1010.39 1010.53 1010.84 1011.30 1011.84 1012.40 1012.90 1013.32 1013.62 1013.84 1014.01 1014.18 1014.38 1014.64 1014.97 1015.35 1015.74 1016.13 1016.47 1016.76 1016.99 1017.18 1017.34 1017.50 1017.67 1017.85 1018.03
1013.92 1014.65 1015.41 1016.09 1016.59 1016.84 1016.80 1016.49 1015.95 1015.27 1014.53 1013.81 1013.18 1012.65 1012.22 1011.86 1011.53 1011.20 1010.87 1010.55 1010.28 1010.11 1010.09 1010.24 1010.56 1011.04 1011.61 1012.22 1012.79 1013.29 1013.69 1014.00 1014.24 1014.44 1014.66 1014.90 1015.19 1015.52 1015.87 1016.22 1016.55 1016.85 1017.12 1017.37 1017.60 1017.82 1018.03 1018.23 1018.43
1014.43 1015.13 1015.80 1016.33 1016.65 1016.69 1016.45 1015.94 1015.24 1014.42 1013.60 1012.84 1012.20 1011.70 1011.33 1011.05 1010.82 1010.61 1010.39 1010.17 1009.99 1009.88 1009.89 1010.05 1010.38 1010.85 1011.42 1012.04 1012.65 1013.20 1013.68 1014.06 1014.37 1014.63 1014.87 1015.12 1015.38 1015.67 1015.97 1016.28 1016.59 1016.90 1017.20 1017.49 1017.79 1018.08 1018.35 1018.61 1018.84
1014.86 1015.48 1016.00 1016.35 1016.46 1016.30 1015.88 1015.23 1014.42 1013.54 1012.69 1011.94 1011.34 1010.89 1010.59 1010.40 1010.27 1010.16 1010.05 1009.94 1009.84 1009.81 1009.86 1010.03 1010.34 1010.78 1011.32 1011.91 1012.51 1013.07 1013.58 1014.02 1014.39 1014.71 1015.00 1015.27 1015.53 1015.81 1016.08 1016.36 1016.66 1016.96 1017.28 1017.61 1017.96 1018.32 1018.66 1018.98 1019.27
1015.13 1015.63 1015.98 1016.13 1016.04 1015.71 1015.14 1014.41 1013.57 1012.71 1011.90 1011.21 1010.68 1010.30 1010.07 1009.95 1009.89 1009.87 1009.86 1009.85 1009.85 1009.89 1009.99 1010.18 1010.48 1010.87 1011.33 1011.85 1012.39 1012.93 1013.43 1013.89 1014.30 1014.68 1015.03 1015.35 1015.66 1015.95 1016.23 1016.51 1016.79 1017.10 1017.43 1017.78 1018.17 1018.58 1018.98 1019.36 1019.70
1015.20 1015.55 1015.72 1015.68 1015.41 1014.94 1014.30 1013.55 1012.75 1011.97 1011.27 1010.68 1010.23 1009.93 1009.75 1009.68 1009.68 1009.72 1009.79 1009.87 1009.96 1010.08 1010.25 1010.46 1010.74 1011.07 1011.46 1011.88 1012.33 1012.79 1013.24 1013.70 1014.14 1014.57 1014.99 1015.38 1015.76 1016.10 1016.43 1016.73 1017.03 1017.33 1017.67 1018.03 1018.44 1018.87 1019.31 1019.73 1020.12
1015.03 1015.23 1015.23 1015.02 1014.62 1014.08 1013.42 1012.72 1012.02 1011.37 1010.80 1010.34 1009.99 1009.75 1009.61 1009.56 1009.58 1009.65 1009.77 1009.91 1010.09 1010.29 1010.51 1010.76 1011.04 1011.33 1011.64 1011.97 1012.31 1012.68 1013.07 1013.49 1013.94 1014.42 1014.90 1015.39 1015.85 1016.28 1016.67 1017.02 1017.35 1017.67 1018.00 1018.36 1018.75 1019.18 1019.63 1020.07 1020.48
1014.66 1014.72 1014.57 1014.22 1013.74 1013.16 1012.54 1011.93 1011.37 1010.88 1010.46 1010.14 1009.88 1009.70 1009.58 1009.53 1009.53 1009.60 1009.72 1009.90 1010.13 1010.40 1010.69 1010.99 1011.28 1011.55 1011.81 1012.06 1012.31 1012.59 1012.92 1013.30 1013.75 1014.25 1014.80 1015.37 1015.92 1016.45 1016.92 1017.34 1017.71 1018.05 1018.38 1018.72 1019.09 1019.49 1019.92 1020.36 1020.78
1014.13 1014.05 1013.77 1013.34 1012.81 1012.24 1011.69 1011.20 1010.79 1010.46 1010.21 1010.01 1009.84 1009.70 1009.58 1009.50 1009.46 1009.50 1009.61 1009.79 1010.05 1010.37 1010.71 1011.06 1011.38 1011.66 1011.90 1012.11 1012.31 1012.53 1012.80 1013.14 1013.57 1014.09 1014.68 1015.32 1015.96 1016.57 1017.13 1017.62 1018.04 1018.41 1018.75 1019.08 1019.42 1019.79 1020.18 1020.60 1021.01
1013.49 1013.29 1012.91 1012.42 1011.87 1011.34 1010.88 1010.51 1010.25 1010.07 1009.95 1009.86 1009.77 1009.66 1009.54 1009.42 1009.34 1009.33 1009.40 1009.56 1009.82 1010.16 1010.54 1010.93 1011.29 1011.60 1011.86 1012.07 1012.26 1012.45 1012.69 1013.01 1013.42 1013.94 1014.55 1015.21 1015.91 1016.59 1017.23 1017.79 1018.27 1018.69 1019.05 1019.38 1019.70 1020.04 1020.41 1020.79 1021.19
1012.75 1012.45 1012.02 1011.50 1010.97 1010.49 1010.11 1009.85 1009.71 1009.65 1009.64 1009.63 1009.59 1009.51 1009.39 1009.26 1009.14 1009.08 1009.10 1009.23 1009.47 1009.80 1010.19 1010.61 1011.01 1011.36 1011.66 1011.91 1012.12 1012.32 1012.56 1012.86 1013.26 1013.76 1014.36 1015.04 1015.76 1016.48 1017.17 1017.80 1018.35 1018.82 1019.23 1019.58 1019.92 1020.26 1020.61 1020.98 1021.37
1011.93 1011.58 1011.12 1010.62 1010.13 1009.71 1009.40 1009.21 1009.14 1009.15 1009.20 1009.24 1009.25 1009.20 1009.10 1008.97 1008.84 1008.75 1008.74 1008.83 1009.03 1009.33 1009.71 1010.13 1010.56 1010.96 1011.31 1011.61 1011.87 1012.12 1012.37 1012.68 1013.06 1013.54 1014.11 1014.76 1015.48 1016.21 1016.94 1017.62 1018.24 1018.79 1019.27 1019.69 1020.08 1020.45 1020.82 1021.20 1021.60
1011.05 1010.68 1010.24 1009.78 1009.35 1008.99 1008.73 1008.58 1008.53 1008.55 1008.61 1008.67 1008.70 1008.69 1008.62 1008.52 1008.42 1008.34 1008.32 1008.39 1008.56 1008.82 1009.17 1009.57 1010.00 1010.43 1010.83 1011.19 1011.51 1011.81 1012.11 1012.43 1012.80 1013.25 1013.78 1014.39 1015.07 1015.80 1016.54 1017.27 1017.96 1018.60 1019.18 1019.69 1020.17 1020.61 1021.04 1021.46 1021.89
1010.09 1009.75 1009.39 1009.02 1008.67 1008.37 1008.13 1007.97 1007.89 1007.87 1007.88 1007.92 1007.95 1007.96 1007.94 1007.91 1007.86 1007.84 1007.85 1007.92 1008.07 1008.29 1008.60 1008.97 1009.38 1009.81 1010.25 1010.66 1011.05 1011.41 1011.75 1012.09 1012.47 1012.88 1013.37 1013.93 1014.57 1015.26 1016.01 1016.77 1017.53 1018.26 1018.95 1019.59 1020.18 1020.74 1021.26 1021.76 1022.24
1009.09 1008.83 1008.58 1008.33 1008.08 1007.84 1007.61 1007.41 1007.25 1007.13 1007.06 1007.02 1007.02 1007.04 1007.07 1007.11 1007.16 1007.21 1007.29 1007.39 1007.54 1007.75 1008.02 1008.35 1008.74 1009.17 1009.62 1010.07 1010.51 1010.92 1011.31 1011.69 1012.06 1012.46 1012.91 1013.42 1014.01 1014.67 1015.40 1016.19 1017.00 1017.82 1018.62 1019.39 1020.11 1020.79 1021.43 1022.03 1022.60
1008.08 1007.93 1007.82 1007.71 1007.57 1007.39 1007.17 1006.91 1006.64 1006.39 1006.19 1006.05 1005.98 1005.98 1006.05 1006.15 1006.29 1006.44 1006.60 1006.77 1006.95 1007.16 1007.42 1007.72 1008.09 1008.51 1008.97 1009.45 1009.93 1010.39 1010.82 1011.23 1011.62 1012.01 1012.43 1012.90 1013.44 1014.06 1014.77 1015.57 1016.41 1017.29 1018.19 1019.07 1019.92 1020.73 1021.49 1022.21 1022.88
1007.11 1007.09 1007.13 1007.16 1007.13 1007.01 1006.78 1006.46 1006.08 1005.69 1005.34 1005.07 1004.91 1004.86 1004.92 1005.07 1005.28 1005.52 1005.77 1006.01 1006.25 1006.49 1006.76 1007.07 1007.43 1007.85 1008.32 1008.82 1009.33 1009.84 1010.31 1010.75 1011.16 1011.55 1011.95 1012.39 1012.90 1013.49 1014.17 1014.94 1015.80 1016.72 1017.67 1018.63 1019.58 1020.50 1021.38 1022.21 1022.99
1006.24 1006.32 1006.49 1006.64 1006.70 1006.63 1006.41 1006.04 1005.57 1005.05 1004.57 1004.17 1003.89 1003.77 1003.80 1003.94 1004.18 1004.48 1004.79 1005.09 1005.40 1005.70 1006.01 1006.35 1006.74 1007.19 1007.68 1008.21 1008.76 1009.29 1009.80 1010.27 1010.70 1011.10 1011.50 1011.93 1012.40 1012.96 1013.60 1014.35 1015.18 1016.09 1017.06 1018.06 1019.07 1020.08 1021.05 1021.98 1022.87
1005.51 1005.64 1005.85 1006.07 1006.19 1006.16 1005.96 1005.57 1005.06 1004.48 1003.90 1003.40 1003.03 1002.82 1002.77 1002.86 1003.08 1003.37 1003.70 1004.05 1004.40 1004.77 1005.14 1005.56 1006.01 1006.51 1007.05 1007.62 1008.20 1008.77 1009.30 1009.79 1010.24 1010.66 1011.06 1011.49 1011.95 1012.47 1013.08 1013.78 1014.57 1015.45 1016.39 1017.39 1018.42 1019.46 1020.50 1021.51 1022.49
1004.94 1005.00 1005.18 1005.38 1005.52 1005.52 1005.35 1005.01 1004.52 1003.95 1003.37 1002.83 1002.39 1002.10 1001.95 1001.94 1002.07 1002.29 1002.58 1002.92 1003.30 1003.72 1004.18 1004.68 1005.22 1005.80 1006.42 1007.04 1007.66 1008.25 1008.80 1009.31 1009.77 1010.20 1010.61 1011.04 1011.49 1012.00 1012.57 1013.23 1013.97 1014.79 1015.69 1016.65 1017.66 1018.71 1019.77 1020.84 1021.90
1004.52 1004.39 1004.42 1004.52 1004.61 1004.62 1004.51 1004.27 1003.91 1003.45 1002.96 1002.48 1002.04 1001.69 1001.45 1001.31 1001.29 1001.37 1001.54 1001.81 1002.17 1002.61 1003.13 1003.73 1004.37 1005.06 1005.76 1006.45 1007.10 1007.72 1008.28 1008.78 1009.25 1009.68 1010.10 1010.53 1010.99 1011.49 1012.05 1012.68 1013.37 1014.14 1014.99 1015.90 1016.87 1017.90 1018.97 1020.06 1021.16
1004.21 1003.79 1003.57 1003.48 1003.47 1003.48 1003.46 1003.38 1003.23 1003.00 1002.71 1002.38 1002.02 1001.67 1001.34 1001.05 1000.84 1000.72 1000.71 1000.84 1001.11 1001.53 1002.08 1002.74 1003.49 1004.27 1005.06 1005.81 1006.51 1007.13 1007.69 1008.18 1008.62 1009.05 1009.48 1009.92 1010.40 1010.92 1011.48 1012.10 1012.78 1013.52 1014.32 1015.19 1016.13 1017.12 1018.17 1019.26 1020.38
1004.01 1003.23 1002.68 1002.34 1002.20 1002.19 1002.28 1002.42 1002.55 1002.64 1002.65 1002.56 1002.35 1002.05 1001.66 1001.22 1000.79 1000.42 1000.17 1000.09 1000.21 1000.54 1001.07 1001.77 1002.58 1003.44 1004.30 1005.11 1005.83 1006.46 1006.99 1007.45 1007.87 1008.28 1008.71 1009.17 1009.67 1010.23 1010.83 1011.48 1012.18 1012.93 1013.72 1014.57 1015.48 1016.45 1017.48 1018.56 1019.66
1003.97 1002.78 1001.89 1001.29 1001.00 1000.98 1001.19 1001.56 1002.02 1002.47 1002.84 1003.05 1003.05 1002.84 1002.41 1001.83 1001.17 1000.52 999.98 999.63 999.54 999.72 1000.17 1000.85 1001.68 1002.59 1003.50 1004.33 1005.07 1005.68 1006.17 1006.59 1006.97 1007.35 1007.77 1008.25 1008.79 1009.41 1010.08 1010.80 1011.55 1012.35 1013.18 1014.05 1014.96 1015.92 1016.93 1017.98 1019.06
1004.14 1002.62 1001.41 1000.58 1000.15 1000.12 1000.45 1001.05 1001.83 1002.64 1003.37 1003.89 1004.11 1004.00 1003.57 1002.85 1001.96 1001.02 1000.16 999.51 999.15 999.12 999.43 1000.02 1000.83 1001.73 1002.65 1003.49 1004.21 1004.79 1005.24 1005.61 1005.93 1006.28 1006.69 1007.18 1007.78 1008.46 1009.21 1010.03 1010.88 1011.76 1012.66 1013.58 1014.53 1015.51 1016.51 1017.54 1018.58
1004.67 1002.91 1001.48 1000.48 999.96 999.93 1000.36 1001.15 1002.19 1003.30 1004.33 1005.11 1005.53 1005.51 1005.05 1004.21 1003.10 1001.87 1000.69 999.71 999.05 998.78 998.89 999.35 1000.06 1000.91 1001.79 1002.60 1003.29 1003.82 1004.22 1004.53 1004.81 1005.12 1005.51 1006.02 1006.65 1007.41 1008.26 1009.18 1010.14 1011.13 1012.13 1013.14 1014.15 1015.16 1016.17 1017.18 1018.19
1005.66 1003.83 1002.32 1001.25 1000.69 1000.66 1001.15 1002.05 1003.25 1004.56 1005.78 1006.73 1007.26 1007.28 1006.78 1005.81 1004.49 1003.00 1001.51 1000.22 999.26 998.71 998.58 998.85 999.43 1000.18 1000.98 1001.73 1002.36 1002.84 1003.18 1003.43 1003.66 1003.93 1004.31 1004.82 1005.49 1006.30 1007.24 1008.26 1009.34 1010.45 1011.56 1012.65 1013.74 1014.80 1015.83 1016.84 1017.82
1007.20 1005.48 1004.05 1003.02 1002.47 1002.45 1002.94 1003.86 1005.09 1006.44 1007.70 1008.69 1009.23 1009.23 1008.66 1007.57 1006.06 1004.34 1002.59 1001.01 999.75 998.92 998.54 998.59 998.99 999.59 1000.28 1000.94 1001.49 1001.91 1002.20 1002.41 1002.59 1002.83 1003.19 1003.70 1004.38 1005.23 1006.23 1007.33 1008.50 1009.70 1010.91 1012.09 1013.25 1014.37 1015.44 1016.46 1017.43
1009.32 1007.89 1006.67 1005.78 1005.29 1005.27 1005.69 1006.52 1007.64 1008.87 1010.02 1010.90 1011.35 1011.26 1010.58 1009.37 1007.72 1005.81 1003.85 1002.03 1000.52 999.43 998.80 998.61 998.79 999.22 999.76 1000.31 1000.78 1001.14 1001.38 1001.55 1001.71 1001.92 1002.25 1002.74 1003.42 1004.28 1005.30 1006.45 1007.67 1008.94 1010.22 1011.48 1012.70 1013.87 1014.98 1016.02 1017.00
1011.89 1010.87 1009.98 1009.29 1008.90 1008.85 1009.16 1009.79 1010.67 1011.65 1012.55 1013.22 1013.48 1013.24 1012.44 1011.12 1009.36 1007.34 1005.23 1003.24 1001.53 1000.21 999.35 998.92 998.89 999.11 999.49 999.92 1000.30 1000.60 1000.81 1000.95 1001.09 1001.28 1001.59 1002.06 1002.72 1003.56 1004.57 1005.71 1006.95 1008.24 1009.55 1010.85 1012.12 1013.34 1014.49 1015.56 1016.56
Thickness
5690 5692 5691 5684 5666 5649 5652 5664 5671 5674 5675 5678 5680 5680 5678 5676 5676 5676 5677 5681 5684 5685 5685 5686 5687 5686 5686 5685 5684 5684 5684 5684 5684 5685 5685 5685 5685 5685 5685 5685 5686 5686 5686 5687 5687 5687 5687 5687 5687
5685 5686 5680 5667 5650 5640 5650 5662 5667 5673 5674 5673 5673 5674 5673 5671 5671 5671 5672 5675 5678 5680 5681 5682 5682 5682 5681 5681 5680 5680 5679 5680 5680 5680 5680 5680 5681 5681 5681 5681 5681 5681 5682 5682 5682 5682 5682 5682 5682
5680 5678 5665 5651 5641 5643 5655 5664 5665 5667 5668 5668 5665 5664 5666 5665 5664 5665 5668 5670 5673 5674 5675 5677 5677 5677 5677 5676 5676 5675 5675 5675 5675 5675 5675 5675 5676 5676 5676 5676 5676 5676 5676 5676 5677 5677 5677 5677 5677
5671 5662 5651 5641 5642 5648 5657 5663 5661 5660 5661 5661 5659 5657 5657 5658 5658 5660 5663 5665 5667 5668 5670 5671 5672 5672 5671 5671 5670 5670 5670 5670 5670 5670 5670 5670 5670 5671 5671 5671 5671 5671 5671 5671 5672 5672 5672 5672 5672
5659 5648 5639 5631 5639 5647 5652 5655 5656 5656 5655 5654 5653 5651 5651 5651 5653 5655 5657 5659 5660 5662 5664 5665 5665 5666 5666 5665 5665 5664 5664 5664 5664 5664 5664 5665 5665 5665 5665 5665 5665 5665 5666 5666 5666 5666 5666 5666 5666
5641 5634 5625 5626 5637 5644 5647 5649 5650 5647 5646 5645 5645 5645 5646 5644 5647 5648 5650 5651 5653 5655 5657 5658 5659 5659 5659 5659 5659 5658 5658 5658 5659 5659 5659 5659 5659 5659 5659 5659 5659 5660 5660 5660 5661 5661 5661 5661 5661
5629 5622 5620 5625 5629 5635 5642 5641 5639 5638 5637 5637 5639 5638 5639 5638 5639 5641 5642 5644 5646 5647 5649 5650 5651 5652 5653 5653 5653 5652 5652 5652 5652 5652 5652 5652 5652 5652 5652 5653 5653 5654 5654 5654 5655 5654 5655 5655 5655
5625 5615 5615 5615 5621 5629 5635 5633 5633 5632 5631 5630 5631 5631 5632 5632 5631 5632 5634 5635 5637 5639 5640 5642 5644 5644 5645 5645 5645 5645 5645 5644 5644 5645 5645 5645 5645 5645 5646 5646 5647 5647 5648 5648 5648 5648 5648 5648 5649
5618 5603 5604 5610 5614 5621 5626 5623 5622 5622 5620 5620 5620 5623 5624 5623 5623 5624 5625 5626 5628 5630 5631 5633 5635 5636 5637 5637 5637 5637 5637 5636 5637 5637 5637 5637 5638 5638 5639 5640 5640 5641 5641 5641 5642 5642 5642 5642 5642
5603 5595 5605 5610 5611 5613 5614 5614 5612 5611 5610 5610 5610 5610 5611 5613 5615 5617 5618 5618 5619 5620 5622 5624 5626 5627 5629 5629 5629 5628 5628 5628 5628 5629 5629 5630 5630 5631 5631 5632 5633 5633 5634 5634 5635 5635 5635 5635 5636
5594 5594 5601 5602 5603 5604 5603 5601 5601 5602 5601 5602 5603 5602 5600 5602 5605 5608 5610 5611 5611 5612 5613 5614 5616 5618 5620 5620 5620 5620 5620 5620 5620 5620 5621 5622 5623 5623 5624 5625 5625 5626 5626 5627 5627 5627 5628 5628 5629
5583 5586 5589 5591 5593 5593 5592 5591 5589 5590 5593 5595 5597 5595 5593 5594 5597 5600 5601 5601 5602 5603 5604 5606 5607 5609 5611 5612 5612 5612 5611 5611 5611 5612 5613 5615 5615 5615 5616 5617 5618 5618 5619 5619 5620 5620 5620 5621 5621
5575 5577 5578 5578 5579 5579 5580 5578 5577 5578 5580 5581 5584 5584 5584 5586 5588 5589 5590 5591 5592 5593 5595 5597 5599 5600 5601 5602 5602 5602 5602 5603 5603 5604 5605 5607 5608 5608 5608 5609 5610 5611 5612 5613 5613 5613 5614 5614 5614
5568 5566 5567 5568 5568 5568 5567 5563 5564 5569 5569 5569 5571 5572 5574 5576 5578 5579 5580 5581 5583 5585 5586 5587 5589 5591 5592 5593 5593 5593 5593 5594 5594 5595 5596 5598 5599 5600 5601 5601 5602 5603 5605 5605 5606 5606 5606 5606 5606
5557 5555 5556 5557 5557 5556 5556 5554 5555 5560 5558 5558 5560 5562 5564 5565 5567 5570 5572 5573 5574 5575 5577 5578 5580 5582 5583 5585 5585 5584 5585 5585 5585 5586 5587 5589 5590 5592 5593 5593 5594 5595 5596 5597 5598 5598 5598 5598 5598
5546 5542 5542 5549 5546 5546 5544 5546 5553 5549 5547 5547 5548 5550 5552 5554 5557 5560 5561 5563 5564 5566 5567 5569 5571 5572 5573 5575 5576 5575 5575 5576 5576 5576 5577 5579 5581 5582 5584 5585 5585 5586 5588 5589 5590 5590 5590 5589 5589
5528 5526 5531 5536 5535 5533 5531 5533 5541 5537 5537 5537 5537 5539 5541 5544 5546 5549 5551 5553 5555 5556 5558 5559 5561 5562 5563 5565 5565 5565 5565 5565 5566 5567 5568 5569 5571 5573 5575 5576 5576 5577 5579 5580 5581 5580 5581 5580 5580
5517 5513 5517 5520 5522 5517 5514 5518 5527 5524 5525 5525 5526 5527 5529 5533 5538 5539 5541 5542 5544 5546 5548 5549 5551 5552 5553 5554 5554 5554 5554 5554 5555 5556 5558 5559 5561 5563 5564 5565 5566 5568 5568 5569 5570 5571 5571 5571 5571
5508 5506 5505 5509 5510 5505 5503 5509 5514 5512 5511 5512 5512 5514 5517 5522 5525 5527 5530 5531 5533 5534 5537 5539 5540 5541 5543 5543 5543 5543 5542 5542 5543 5545 5546 5549 5550 5552 5554 5555 5556 5557 5558 5558 5560 5561 5560 5559 5560
5496 5493 5492 5495 5497 5493 5489 5495 5502 5501 5503 5504 5505 5505 5506 5508 5511 5515 5518 5520 5522 5524 5525 5527 5529 5530 5533 5533 5534 5534 5533 5531 5532 5533 5535 5537 5539 5541 5543 5545 5545 5546 5547 5547 5549 5551 5549 5548 5549
5483 5481 5482 5481 5480 5478 5477 5485 5493 5495 5493 5495 5495 5495 5496 5499 5500 5503 5506 5508 5510 5512 5515 5518 5517 5519 5520 5521 5522 5521 5520 5519 5519 5521 5523 5525 5527 5530 5531 5533 5535 5536 5537 5537 5538 5541 5541 5539 5538
5473 5474 5472 5468 5461 5456 5462 5463 5482 5481 5482 5486 5485 5484 5485 5488 5490 5492 5495 5497 5499 5501 5503 5504 5506 5507 5508 5509 5510 5511 5511 5509 5509 5509 5511 5513 5515 5517 5519 5521 5523 5524 5525 5526 5527 5529 5530 5531 5529
5455 5456 5454 5452 5444 5438 5439 5441 5465 5465 5472 5476 5476 5475 5476 5477 5480 5482 5485 5486 5488 5489 5491 5492 5494 5494 5495 5497 5499 5500 5499 5498 5496 5497 5498 5500 5502 5504 5506 5508 5511 5512 5513 5515 5516 5517 5518 5519 5519
5440 5438 5435 5428 5426 5428 5434 5431 5450 5449 5461 5466 5467 5466 5465 5466 5469 5471 5473 5474 5475 5477 5479 5480 5481 5482 5483 5485 5486 5487 5486 5485 5484 5485 5486 5487 5488 5491 5494 5496 5498 5500 5501 5502 5504 5506 5506 5507 5507
5426 5424 5419 5417 5410 5420 5422 5423 5436 5444 5448 5451 5453 5453 5454 5455 5457 5459 5460 5462 5464 5465 5467 5468 5469 5470 5471 5472 5473 5473 5474 5474 5474 5475 5474 5475 5476 5478 5481 5483 5486 5488 5489 5490 5492 5494 5494 5495 5496
5408 5413 5411 5409 5406 5409 5404 5412 5429 5431 5432 5435 5437 5438 5440 5442 5444 5447 5449 5451 5453 5454 5455 5456 5458 5458 5459 5460 5460 5461 5462 5462 5462 5463 5464 5464 5465 5468 5470 5470 5473 5476 5477 5478 5480 5481 5482 5483 5483
5396 5394 5397 5391 5380 5383 5394 5397 5412 5419 5419 5420 5421 5423 5425 5428 5431 5433 5437 5439 5441 5442 5443 5445 5445 5446 5447 5448 5448 5448 5449 5450 5451 5451 5452 5452 5454 5456 5457 5459 5461 5463 5464 5465 5467 5467 5469 5470 5471
5383 5378 5374 5380 5384 5387 5390 5388 5404 5408 5407 5408 5408 5408 5411 5414 5416 5419 5422 5426 5428 5430 5431 5432 5433 5434 5436 5436 5436 5437 5438 5438 5439 5440 5440 5441 5442 5444 5446 5447 5449 5451 5452 5452 5454 5455 5456 5457 5458
5366 5363 5360 5358 5363 5373 5376 5392 5396 5393 5395 5395 5396 5397 5397 5400 5402 5405 5408 5411 5413 5415 5417 5418 5420 5421 5423 5424 5425 5425 5426 5427 5427 5428 5428 5429 5430 5432 5434 5435 5436 5438 5439 5441 5442 5443 5444 5444 5445
5353 5350 5347 5352 5348 5345 5357 5375 5384 5378 5380 5381 5382 5384 5384 5386 5388 5390 5392 5396 5399 5401 5403 5405 5407 5409 5410 5411 5412 5413 5414 5414 5415 5416 5417 5417 5419 5420 5421 5422 5424 5425 5427 5429 5430 5431 5431 5432 5432